Weather in Cam Pha

Vietnam     21°00′57″N   107°18′13″E
temp.,
°C
wind,
m/s
gust,
m/s
humid.,
%
clouds,
%
prec.,
mm/h
press.,
hPa
HPBL,
m
25 june, sat
sat2501:00+26s248899 0.1 1007279
04:00+26ssw358752 0.2 1006271
07:00+28ssw358239 0.7 1007562
10:00+30s457048 0.9 10071088
13:00+30s446826 1.1 10051085
16:00+30s347047 0.0 1004928
19:00+27sse348434 0.0 1005276
22:00+27sse35888 0.2 1007291
26 june, sun
sun2601:00+26s48893 2.6 1006429
04:00+26s478927 2.6 1006346
07:00+28s25846 4.0 1007427
10:00+29s467610 1.3 1007953
13:00+31s566890 1.8 10061189
16:00+30s457354 0.1 1004931
19:00+27se24898 0.1 1005180
22:00+27sse24914 0.4 1007136
27 june, mon
mon2701:00+27s488814 1.9 1005273
04:00+27s498896 3.1 1005329
07:00+28s5989100 5.8 1007672
10:00+29ssw5885100 2.1 1006869
13:00+31s56718 2.3 10041085
16:00+30s44735 0.0 1002797
19:00+27se2391100 0.0 1002134
22:00+27sse239333 0.3 1005147
28 june, tue
tue2801:00+27sse3693100 2.0 1003212
04:00+27s4890100 3.5 1003295
07:00+29ssw478793 3.6 1004629
10:00+31s447590 0.1 1004979
13:00+32s4368100 0.1 1001963
16:00+31sse337375 0.0 1000756
19:00+28e2486100 0.1 1001168
22:00+27ne2289100 0.0 100292
29 june, wed
wed2901:00+28e1288100 0.1 100171
04:00+27ene2391100 1.8 100069
07:00+28ne2489100 1.8 1002255
10:00+30ene4583100 2.4 1002622
13:00+32e437098 2.6 10001046
16:00+30e347992 2.9 999509
19:00+27ene3691100 6.1 1000239
22:00+27ene349197 5.1 1001140